KLM1579 EHAM-LPPT

Flight info

Callsign KLM1579
Flight time N/A
Altitude 33000
Route WOODY DCT CIV DCT MEDIL DCT KOVIN DCT NIDUV DCT KIHVI UN872 ERIGA UZ218 FUJTI DCT BAKUP DCT BATAX DCT INBOM
Aircraft A21N/M-SDE2E3FGHIJ1RWXY/LB1

Departure

Time N/A
Airport Amsterdam Airport Schiphol (EHAM)

Arrival

Time 2026-05-01 09:26
Airport Lisbon Humberto Delgado Airport (LPPT)
Time Latitude Longitude Altitude Speed Heading
2026-05-01 07:23 49.00866 1.74593 33247 ft 453 kts 241°
2026-05-01 07:24 48.96908 1.61559 33235 ft 452 kts 241°
2026-05-01 07:24 48.94236 1.52810 33236 ft 452 kts 241°
2026-05-01 07:25 48.91587 1.44144 33236 ft 452 kts 241°
2026-05-01 07:25 48.88928 1.35479 33231 ft 452 kts 241°
2026-05-01 07:26 48.86263 1.26834 33241 ft 450 kts 241°
2026-05-01 07:26 48.83601 1.18236 33235 ft 450 kts 241°
2026-05-01 07:27 48.80931 1.09630 33241 ft 450 kts 241°
2026-05-01 07:27 48.78247 1.01062 33225 ft 450 kts 241°
2026-05-01 07:28 48.75562 0.92490 33236 ft 450 kts 241°
2026-05-01 07:28 48.72563 0.84208 33235 ft 447 kts 235°
2026-05-01 07:29 48.69309 0.76189 33235 ft 447 kts 235°
2026-05-01 07:29 48.66053 0.68169 33236 ft 447 kts 235°
2026-05-01 07:30 48.62792 0.60149 33240 ft 449 kts 235°
2026-05-01 07:30 48.59506 0.52096 33241 ft 450 kts 235°
2026-05-01 07:31 48.56217 0.44063 33242 ft 450 kts 235°
2026-05-01 07:32 48.47944 0.23944 33225 ft 452 kts 236°
2026-05-01 07:33 48.42955 0.11893 33230 ft 452 kts 236°
2026-05-01 07:33 48.37941 -0.00178 33233 ft 454 kts 236°
2026-05-01 07:34 48.32510 -0.11817 33225 ft 453 kts 231°
2026-05-01 07:35 48.28742 -0.19399 33230 ft 453 kts 231°
2026-05-01 07:35 48.24976 -0.26975 33229 ft 453 kts 231°
2026-05-01 07:36 48.21172 -0.34437 33231 ft 454 kts 231°
2026-05-01 07:36 48.17296 -0.41998 33230 ft 455 kts 231°
2026-05-01 07:37 48.11513 -0.53277 33230 ft 455 kts 231°
2026-05-01 07:37 48.07648 -0.60798 33229 ft 455 kts 231°
2026-05-01 07:38 48.03783 -0.68300 33229 ft 455 kts 231°
2026-05-01 07:39 47.97964 -0.79530 33230 ft 457 kts 231°
2026-05-01 07:39 47.92161 -0.90701 33231 ft 453 kts 231°
2026-05-01 07:40 47.88262 -0.98187 33231 ft 453 kts 231°
2026-05-01 07:40 47.84383 -1.05579 33229 ft 453 kts 231°
2026-05-01 07:41 47.80496 -1.12973 33229 ft 453 kts 231°
2026-05-01 07:42 47.74650 -1.24085 33232 ft 455 kts 232°
2026-05-01 07:42 47.70743 -1.31475 33230 ft 453 kts 232°
2026-05-01 07:43 47.66846 -1.38835 33230 ft 453 kts 232°
2026-05-01 07:43 47.60990 -1.49851 33231 ft 453 kts 232°
2026-05-01 07:44 47.52632 -1.63851 33229 ft 453 kts 229°
2026-05-01 07:45 47.48422 -1.70749 33228 ft 449 kts 228°
2026-05-01 07:45 47.44251 -1.77587 33231 ft 448 kts 228°
2026-05-01 07:46 47.40074 -1.84427 33230 ft 448 kts 228°
2026-05-01 07:47 47.33520 -1.94132 33231 ft 448 kts 215°
2026-05-01 07:47 47.28202 -1.98959 33234 ft 449 kts 211°
2026-05-01 07:48 47.20184 -2.06054 33232 ft 448 kts 212°
2026-05-01 07:48 47.14874 -2.10785 33229 ft 444 kts 212°
2026-05-01 07:49 47.06963 -2.17814 33238 ft 443 kts 212°
2026-05-01 07:50 47.01680 -2.22491 33236 ft 443 kts 212°
2026-05-01 07:50 46.93753 -2.29494 33251 ft 443 kts 212°
2026-05-01 07:51 46.88474 -2.34140 33247 ft 443 kts 212°
2026-05-01 07:52 46.80554 -2.41098 33238 ft 443 kts 212°
2026-05-01 07:52 46.75277 -2.45729 33243 ft 440 kts 211°
2026-05-01 07:53 46.67460 -2.52560 33240 ft 438 kts 211°
2026-05-01 07:53 46.62228 -2.57124 33239 ft 438 kts 211°
2026-05-01 07:55 46.50041 -2.67702 33249 ft 437 kts 211°
2026-05-01 07:56 46.36967 -2.78993 33243 ft 437 kts 211°
2026-05-01 07:57 46.29157 -2.85705 33240 ft 433 kts 210°
2026-05-01 07:58 46.18821 -2.94678 33235 ft 433 kts 211°
2026-05-01 07:59 46.08520 -3.03627 33235 ft 432 kts 211°
2026-05-01 08:00 45.93044 -3.16992 33250 ft 431 kts 211°
2026-05-01 08:01 45.82803 -3.25791 33235 ft 429 kts 211°
2026-05-01 08:02 45.75114 -3.32371 33230 ft 429 kts 211°
2026-05-01 08:03 45.67423 -3.38930 33227 ft 429 kts 211°
2026-05-01 08:03 45.59725 -3.45476 33225 ft 429 kts 211°
2026-05-01 08:04 45.49480 -3.54154 33234 ft 426 kts 210°
2026-05-01 08:05 45.41831 -3.60610 33233 ft 426 kts 210°
2026-05-01 08:06 45.34207 -3.67024 33230 ft 426 kts 210°
2026-05-01 08:07 45.23980 -3.75593 33226 ft 427 kts 210°
2026-05-01 08:08 45.16305 -3.82002 33226 ft 427 kts 210°
2026-05-01 08:09 45.06071 -3.90515 33219 ft 426 kts 211°
2026-05-01 08:09 45.00954 -3.94757 33221 ft 426 kts 211°
2026-05-01 08:10 44.90716 -4.03219 33214 ft 427 kts 211°
2026-05-01 08:11 44.80447 -4.11673 33215 ft 427 kts 211°
2026-05-01 08:12 44.72766 -4.17976 33218 ft 428 kts 211°
2026-05-01 08:13 44.65048 -4.24288 33217 ft 428 kts 211°
2026-05-01 08:13 44.57329 -4.30578 33211 ft 428 kts 211°
2026-05-01 08:14 44.52180 -4.34765 33210 ft 428 kts 211°
2026-05-01 08:14 44.47015 -4.38956 33209 ft 429 kts 211°
2026-05-01 08:15 44.39289 -4.45283 33211 ft 429 kts 212°
2026-05-01 08:16 44.34152 -4.49642 33207 ft 429 kts 212°
2026-05-01 08:16 44.29038 -4.53969 33204 ft 430 kts 212°
2026-05-01 08:17 44.23951 -4.58262 33208 ft 430 kts 212°
2026-05-01 08:17 44.18792 -4.62610 33196 ft 431 kts 213°
2026-05-01 08:18 44.13690 -4.66902 33197 ft 431 kts 213°
2026-05-01 08:19 44.03374 -4.75549 33196 ft 433 kts 213°
2026-05-01 08:19 43.98210 -4.79865 33202 ft 433 kts 213°
2026-05-01 08:20 43.93040 -4.84177 33195 ft 433 kts 213°
2026-05-01 08:20 43.87861 -4.88489 33190 ft 434 kts 213°
2026-05-01 08:21 43.82671 -4.92797 33195 ft 435 kts 213°
2026-05-01 08:21 43.77479 -4.97101 33194 ft 433 kts 213°
2026-05-01 08:22 43.72333 -5.01358 33194 ft 431 kts 213°
2026-05-01 08:22 43.67195 -5.05596 33186 ft 433 kts 213°
2026-05-01 08:23 43.62019 -5.09863 33188 ft 433 kts 213°
2026-05-01 08:23 43.56834 -5.14127 33186 ft 433 kts 213°
2026-05-01 08:24 43.51655 -5.18378 33182 ft 433 kts 213°
2026-05-01 08:24 43.46464 -5.22628 33175 ft 434 kts 213°
2026-05-01 08:25 43.41269 -5.26873 33179 ft 434 kts 213°
2026-05-01 08:25 43.36068 -5.31116 33178 ft 435 kts 213°
2026-05-01 08:26 43.30875 -5.35342 33181 ft 431 kts 212°
2026-05-01 08:26 43.25718 -5.39529 33172 ft 430 kts 212°
2026-05-01 08:27 43.20564 -5.43707 33171 ft 430 kts 212°
2026-05-01 08:27 43.15410 -5.47877 33170 ft 430 kts 212°
2026-05-01 08:28 43.10251 -5.52044 33165 ft 430 kts 212°
2026-05-01 08:28 43.05120 -5.56178 33163 ft 431 kts 212°
2026-05-01 08:29 42.99945 -5.60339 33165 ft 431 kts 212°
2026-05-01 08:29 42.94775 -5.64491 33164 ft 431 kts 212°
2026-05-01 08:30 42.89598 -5.68639 33164 ft 432 kts 212°
2026-05-01 08:30 42.84415 -5.72783 33168 ft 431 kts 212°
2026-05-01 08:31 42.79260 -5.76895 33170 ft 429 kts 212°
2026-05-01 08:31 42.74095 -5.81006 33171 ft 430 kts 212°
2026-05-01 08:32 42.68938 -5.85105 33172 ft 430 kts 212°
2026-05-01 08:32 42.63770 -5.89206 33170 ft 430 kts 212°
2026-05-01 08:33 42.58605 -5.93299 33170 ft 430 kts 212°
2026-05-01 08:33 42.53441 -5.97379 33173 ft 430 kts 212°
2026-05-01 08:34 42.48273 -6.01457 33172 ft 430 kts 212°
2026-05-01 08:34 42.43944 -6.04865 33169 ft 430 kts 211°
2026-05-01 08:35 42.38767 -6.08928 33178 ft 430 kts 211°
2026-05-01 08:35 42.33614 -6.12972 33173 ft 427 kts 211°
2026-05-01 08:36 42.28509 -6.16974 33174 ft 426 kts 211°
2026-05-01 08:36 42.23370 -6.20986 33165 ft 427 kts 211°
2026-05-01 08:37 42.18222 -6.25001 33171 ft 427 kts 211°
2026-05-01 08:37 42.13066 -6.29013 33177 ft 427 kts 211°
2026-05-01 08:38 42.07913 -6.33015 33178 ft 427 kts 211°
2026-05-01 08:38 42.02764 -6.37011 33178 ft 427 kts 211°
2026-05-01 08:39 41.97600 -6.41009 33172 ft 428 kts 211°
2026-05-01 08:39 41.92433 -6.44998 33174 ft 428 kts 211°
2026-05-01 08:40 41.84701 -6.50961 33171 ft 425 kts 211°
2026-05-01 08:40 41.79576 -6.54911 33161 ft 425 kts 211°
2026-05-01 08:41 41.74430 -6.58856 33177 ft 427 kts 211°
2026-05-01 08:41 41.69338 -6.62945 33176 ft 426 kts 216°
2026-05-01 08:42 41.64614 -6.67733 33176 ft 426 kts 218°
2026-05-01 08:42 41.59914 -6.72547 33174 ft 425 kts 218°
2026-05-01 08:43 41.55203 -6.77340 33173 ft 426 kts 218°
2026-05-01 08:43 41.50485 -6.82133 33179 ft 426 kts 218°
2026-05-01 08:44 41.45766 -6.86913 33186 ft 424 kts 218°
2026-05-01 08:44 41.41069 -6.91665 33184 ft 423 kts 218°
2026-05-01 08:45 41.36373 -6.96407 33186 ft 423 kts 218°
2026-05-01 08:45 41.31699 -7.01114 33178 ft 424 kts 218°
2026-05-01 08:46 41.26989 -7.05849 33190 ft 424 kts 218°
2026-05-01 08:46 41.22288 -7.10573 33189 ft 423 kts 218°
2026-05-01 08:47 41.17587 -7.15280 33193 ft 423 kts 218°
2026-05-01 08:47 41.12877 -7.20001 33187 ft 423 kts 218°
2026-05-01 08:48 41.08176 -7.24692 33187 ft 420 kts 218°
2026-05-01 08:48 41.03504 -7.29346 33190 ft 421 kts 218°
2026-05-01 08:49 40.98836 -7.33992 33186 ft 418 kts 218°
2026-05-01 08:49 40.94179 -7.38615 33189 ft 418 kts 218°
2026-05-01 08:50 40.89522 -7.43228 33188 ft 418 kts 218°
2026-05-01 08:50 40.84895 -7.47809 33184 ft 418 kts 218°
2026-05-01 08:51 40.80276 -7.52378 33173 ft 409 kts 218°
2026-05-01 08:51 40.75645 -7.56946 33196 ft 419 kts 218°
2026-05-01 08:52 40.70974 -7.61537 33192 ft 417 kts 218°
2026-05-01 08:52 40.66342 -7.66088 33188 ft 414 kts 218°
2026-05-01 08:53 40.61740 -7.70600 33181 ft 414 kts 218°
2026-05-01 08:53 40.57135 -7.75107 33181 ft 407 kts 218°
2026-05-01 08:54 40.52563 -7.79572 33182 ft 414 kts 218°
2026-05-01 08:54 40.47937 -7.84088 33193 ft 414 kts 218°
2026-05-01 08:55 40.43312 -7.88600 33188 ft 414 kts 218°
2026-05-01 08:55 40.38682 -7.93096 33185 ft 414 kts 218°
2026-05-01 08:56 40.34042 -7.97587 33181 ft 413 kts 218°
2026-05-01 08:56 40.29459 -8.02022 33176 ft 406 kts 218°
2026-05-01 08:57 40.24853 -8.06483 33185 ft 414 kts 218°
2026-05-01 08:57 40.22575 -8.08685 32984 ft 407 kts 218°
2026-05-01 08:57 40.20290 -8.10891 32072 ft 410 kts 218°
2026-05-01 08:58 40.17983 -8.13115 31111 ft 415 kts 218°
2026-05-01 08:58 40.15649 -8.15364 30144 ft 419 kts 218°
2026-05-01 08:58 40.13289 -8.17636 29055 ft 423 kts 218°
2026-05-01 08:58 40.10913 -8.19921 28123 ft 423 kts 218°
2026-05-01 08:59 40.08554 -8.22186 27436 ft 419 kts 218°
2026-05-01 08:59 40.06217 -8.24426 26784 ft 414 kts 218°
2026-05-01 08:59 40.03912 -8.26636 26113 ft 409 kts 218°
2026-05-01 08:59 40.01569 -8.28730 25438 ft 407 kts 212°
2026-05-01 09:00 39.98982 -8.30207 24821 ft 406 kts 200°
2026-05-01 09:00 39.96213 -8.30925 24196 ft 406 kts 191°
2026-05-01 09:00 39.93406 -8.31345 23442 ft 405 kts 189°
2026-05-01 09:00 39.90618 -8.31729 22673 ft 401 kts 189°
2026-05-01 09:01 39.87859 -8.32122 21983 ft 396 kts 189°
2026-05-01 09:01 39.85130 -8.32527 21272 ft 392 kts 189°
2026-05-01 09:01 39.82437 -8.32936 20602 ft 387 kts 189°
2026-05-01 09:01 39.79775 -8.33344 19964 ft 383 kts 189°
2026-05-01 09:02 39.77140 -8.33748 19335 ft 379 kts 189°
2026-05-01 09:02 39.74542 -8.34144 18720 ft 375 kts 189°
2026-05-01 09:02 39.71967 -8.34536 18054 ft 371 kts 189°
2026-05-01 09:02 39.69479 -8.35272 17353 ft 363 kts 204°
2026-05-01 09:03 39.67386 -8.36995 16902 ft 351 kts 224°
2026-05-01 09:03 39.65865 -8.39382 16665 ft 336 kts 233°
2026-05-01 09:03 39.64530 -8.41795 16482 ft 322 kts 233°
2026-05-01 09:03 39.63241 -8.44090 16315 ft 308 kts 233°
2026-05-01 09:04 39.61989 -8.46271 16109 ft 297 kts 232°
2026-05-01 09:04 39.60754 -8.48388 15731 ft 292 kts 232°
2026-05-01 09:04 39.59527 -8.50479 15289 ft 290 kts 232°
2026-05-01 09:04 39.58222 -8.52458 14831 ft 288 kts 221°
2026-05-01 09:05 39.56595 -8.53973 14380 ft 287 kts 212°
2026-05-01 09:05 39.54909 -8.55283 13946 ft 286 kts 211°
2026-05-01 09:05 39.53182 -8.56611 13461 ft 284 kts 211°
2026-05-01 09:05 39.51509 -8.57907 12995 ft 283 kts 211°
2026-05-01 09:06 39.49825 -8.59219 12520 ft 282 kts 211°
2026-05-01 09:06 39.48151 -8.60527 12053 ft 281 kts 211°
2026-05-01 09:06 39.46468 -8.61844 11622 ft 282 kts 211°
2026-05-01 09:06 39.44787 -8.63160 11275 ft 282 kts 211°
2026-05-01 09:07 39.43109 -8.64469 11188 ft 282 kts 211°
2026-05-01 09:07 39.41425 -8.65787 11181 ft 282 kts 211°
2026-05-01 09:07 39.39746 -8.67103 11189 ft 282 kts 211°
2026-05-01 09:07 39.38066 -8.68416 11196 ft 282 kts 211°
2026-05-01 09:08 39.36387 -8.69728 11196 ft 282 kts 211°
2026-05-01 09:08 39.34712 -8.71037 11199 ft 282 kts 211°
2026-05-01 09:08 39.33032 -8.72350 11209 ft 282 kts 211°
2026-05-01 09:08 39.31378 -8.73705 11203 ft 281 kts 216°
2026-05-01 09:09 39.29876 -8.75324 11204 ft 281 kts 221°
2026-05-01 09:09 39.28416 -8.77009 11203 ft 282 kts 221°
2026-05-01 09:09 39.26953 -8.78700 11202 ft 282 kts 221°
2026-05-01 09:09 39.25492 -8.80387 11200 ft 282 kts 221°
2026-05-01 09:10 39.24030 -8.82069 11195 ft 282 kts 221°
2026-05-01 09:10 39.22562 -8.83750 11198 ft 282 kts 221°
2026-05-01 09:10 39.21096 -8.85427 11199 ft 282 kts 221°
2026-05-01 09:10 39.19632 -8.87100 11201 ft 282 kts 221°
2026-05-01 09:11 39.18165 -8.88774 11201 ft 282 kts 220°
2026-05-01 09:11 39.16694 -8.90444 11201 ft 282 kts 220°
2026-05-01 09:11 39.15221 -8.92121 11201 ft 282 kts 220°
2026-05-01 09:11 39.13753 -8.93797 11201 ft 282 kts 221°
2026-05-01 09:12 39.12286 -8.95469 11200 ft 282 kts 220°
2026-05-01 09:12 39.10820 -8.97141 11199 ft 282 kts 220°
2026-05-01 09:12 39.09370 -8.98791 11200 ft 282 kts 220°
2026-05-01 09:12 39.07901 -9.00462 11202 ft 282 kts 220°
2026-05-01 09:13 39.06429 -9.02131 11201 ft 282 kts 220°
2026-05-01 09:13 39.05438 -9.03256 11203 ft 282 kts 220°
2026-05-01 09:13 39.03495 -9.05461 11198 ft 274 kts 220°
2026-05-01 09:13 39.02547 -9.06539 11192 ft 263 kts 220°
2026-05-01 09:14 39.01193 -9.08075 11190 ft 258 kts 220°
2026-05-01 09:14 38.99790 -9.09461 11194 ft 257 kts 209°
2026-05-01 09:14 38.98147 -9.10447 11199 ft 257 kts 202°
2026-05-01 09:14 38.96490 -9.11313 11207 ft 257 kts 202°
2026-05-01 09:15 38.94853 -9.12169 11097 ft 251 kts 202°
2026-05-01 09:15 38.93238 -9.13021 10680 ft 251 kts 202°
2026-05-01 09:15 38.91621 -9.13879 10281 ft 251 kts 202°
2026-05-01 09:15 38.90007 -9.14738 9892 ft 251 kts 202°
2026-05-01 09:16 38.88415 -9.15585 9486 ft 250 kts 202°
2026-05-01 09:16 38.86811 -9.16438 9062 ft 249 kts 202°
2026-05-01 09:16 38.85210 -9.17289 8665 ft 249 kts 202°
2026-05-01 09:17 38.82021 -9.18987 7919 ft 247 kts 202°
2026-05-01 09:17 38.80435 -9.19838 7521 ft 247 kts 202°
2026-05-01 09:17 38.77273 -9.21526 6805 ft 245 kts 202°
2026-05-01 09:18 38.75701 -9.22365 6420 ft 245 kts 202°
2026-05-01 09:18 38.72585 -9.24143 6148 ft 253 kts 211°
2026-05-01 09:19 38.69321 -9.25847 6102 ft 242 kts 199°
2026-05-01 09:19 38.67760 -9.26513 5920 ft 233 kts 199°
2026-05-01 09:19 38.66234 -9.27177 5611 ft 230 kts 199°
2026-05-01 09:20 38.63225 -9.28517 4938 ft 229 kts 200°
2026-05-01 09:20 38.60169 -9.29692 4712 ft 231 kts 180°
2026-05-01 09:21 38.57656 -9.27510 4294 ft 233 kts 109°
2026-05-01 09:21 38.57618 -9.25473 4036 ft 235 kts 70°
2026-05-01 09:21 38.59960 -9.22807 3933 ft 233 kts 20°
2026-05-01 09:22 38.63008 -9.21544 3325 ft 228 kts 18°
2026-05-01 09:22 38.65923 -9.20106 2710 ft 215 kts 22°
2026-05-01 09:23 38.67249 -9.19403 2427 ft 199 kts 22°
2026-05-01 09:23 38.69669 -9.18111 1869 ft 177 kts 22°
2026-05-01 09:24 38.71713 -9.17022 1360 ft 139 kts 22°
2026-05-01 09:24 38.72597 -9.16546 1125 ft 138 kts 23°
2026-05-01 09:24 38.74367 -9.15580 906 ft 138 kts 21°
2026-05-01 09:25 38.76137 -9.14656 470 ft 136 kts 22°
2026-05-01 09:25 38.77665 -9.13842 371 ft 78 kts 22°
2026-05-01 09:26 38.78012 -9.13658 373 ft 30 kts 22°
2026-05-01 09:26 38.78226 -9.13515 371 ft 13 kts 89°
2026-05-01 09:26 38.78156 -9.13453 368 ft 14 kts 171°
2026-05-01 09:27 38.77951 -9.13401 358 ft 16 kts 168°
2026-05-01 09:27 38.77837 -9.13370 353 ft 17 kts 167°
2026-05-01 09:27 38.77718 -9.13337 345 ft 18 kts 168°
2026-05-01 09:28 38.77593 -9.13319 350 ft 19 kts 178°
2026-05-01 09:28 38.77457 -9.13286 343 ft 21 kts 169°
2026-05-01 09:28 38.77337 -9.13259 346 ft 13 kts 172°
2026-05-01 09:28 38.77274 -9.13246 343 ft 4 kts 169°
2026-05-01 09:29 38.77249 -9.13180 343 ft 1 kts 78°
2026-05-01 09:29 38.77252 -9.13164 343 ft 3 kts 78°
2026-05-01 09:30 38.77253 -9.13157 343 ft 0 kts 77°